To NAV CANADA Home Page Login to a new session Search on AWWS site Feedback and Comments Disclaimer Vers la page française équivalente Tips FAQ What's new on the site To the Forecasts and Observations / NOTAM section To "File a Flight Plan" website Publications and other links Update of the User's profile FIC Telephone Numbers My Weather Data Folder Route Weather Data Regional Weather Data Local Weather Data To the Forecasts and Observations / NOTAM section
Request Generated 12/04/2016 at 22:19:24 UTC . Weather information available at that time is displayed.

METAR/TAF

QUAQTAQ/QC    

LWIS CYHA 042200Z AUTO 14005KT M08/M09 A2985=
LWIS CYHA 042100Z AUTO 15002KT M08/M09 A2985=
LWIS CYHA 042000Z AUTO 13003KT M12/M13 A2985=

*** REMARK        : Forecast period has ended; this was the last TAF issued
*** REMARQUE : La période de prévision est échue; ceci était le dernier TAF qui a été émis
TAF CYHA 041438Z 0415/0422 FCST NOT AVBL DUE NO OBS
RMK NXT FCST WILL BE ISSUED AT 051445Z=
Your time UTC time
Weather data provided by Environment Canada and NAV CANADA